Flag for Germany Weather past 2 weeks in Varel, Lower Saxony, Germany

Now
66 °F

Broken clouds.


Feels Like: 66 °F
Forecast: 62 / 80 °F
Wind: 2 mph from East

Location: Wittmundhaven

Current Time: Jul 31, 2014 at 9:55:12 PM

Latest Report: Jul 31, 2014 at 9:20 PM


Visibility: N/A

Pressure: 29.92 "Hg

Humidity: 88%

Dew point: 63 °F

Location of VarelLocation

Historic Weather in Varel — Graph

°F

Varel temperature yesterday

Maximum temperature yesterday: 72 °F (at 12:20 PM)
Minimum temperature yesterday: 59 °F (at 11:20 PM)
Average temperature yesterday: 67 °F

Past Weeks' High & Low Weather Summary

 TemperatureHumidityPressure
High91 °F (Jul 19, 2:20 PM)100% (Jul 18, 3:20 AM)30.18 "Hg (Jul 18, 3:20 AM)
Low55 °F (Jul 17, 1:20 AM)32% (Jul 19, 5:20 PM)29.77 "Hg (Jul 20, 6:20 PM)
Average70 °F74%29.98 "Hg
* Reported Jul 16 8:20 PM — Jul 31 8:20 PM, Varel, Weather by CustomWeather, © 2014

Note: Actual official high and low records may vary slightly from our data, if they occured in-between our weather recording intervals... More about our weather records

Advertising

Varel weather history for previous 24 hours

 ConditionsComfort  
Time TempWeatherWind HumidityBarometerVisibility
8:20 PM
Jul 31
68 °FBroken clouds.5 mph83%29.92 "HgN/A
7:20 PM68 °FBroken clouds.3 mph83%29.92 "HgN/A
6:20 PM68 °FBroken clouds.3 mph83%29.92 "HgN/A
5:20 PM66 °FBroken clouds.5 mph88%29.95 "HgN/A
4:20 PM66 °FBroken clouds.3 mph83%29.95 "HgN/A
3:20 PM70 °FSprinkles. Broken clouds.5 mph64%29.95 "HgN/A
2:20 PM72 °FBroken clouds.9 mph61%29.95 "HgN/A
1:20 PM72 °FBroken clouds.10 mph61%29.95 "HgN/A
12:20 PM72 °FScattered clouds.13 mph57%29.95 "HgN/A
11:20 AM70 °FScattered clouds.12 mph64%29.98 "HgN/A
10:20 AM68 °FScattered clouds.13 mph69%29.95 "HgN/A
9:20 AM66 °FPassing clouds.13 mph78%29.95 "HgN/A
8:20 AM63 °FPassing clouds.10 mph83%29.95 "HgN/A
7:20 AM59 °FPassing clouds.7 mph88%29.95 "HgN/A
6:20 AM57 °FPassing clouds.5 mph94%29.95 "HgN/A
5:20 AM55 °FFog.3 mph94%29.95 "HgN/A
4:20 AM55 °FPassing clouds.3 mph94%29.95 "HgN/A
3:20 AM57 °FPassing clouds.3 mph88%29.92 "HgN/A
2:20 AM57 °FPassing clouds.3 mph88%29.92 "HgN/A
1:20 AM57 °FPassing clouds.5 mph88%29.95 "HgN/A
12:20 AM59 °FPassing clouds.5 mph82%29.95 "HgN/A
11:20 PM
Jul 30
59 °FPassing clouds.5 mph88%29.92 "HgN/A
10:20 PM63 °FScattered clouds.3 mph77%29.92 "HgN/A
9:20 PM64 °FScattered clouds.7 mph73%29.92 "HgN/A
Weather by CustomWeather, © 2014

See weather overviewHow to use our weather pages